sat.trackr.live / text

‹ back to catalog

STARLINK-11363 [DTC]

NORAD 62012 · 2024-213E

PAYLOAD ACTIVE UNKNOWN

§ Identity

Operator
Country
US
Launch date
2024-11-18
Launch site
AFWTR
Launch vehicle
Mass (kg)
RCS (m²)

Purposes: comms

External: N2YO · Heavens-Above · Gunter

§ Orbital elements

Epoch: 2026-09-21T23:13:10.928640Z

Period
91.74 min
Inclination
53.1571°
Eccentricity
0.0000993
Mean motion
15.69716605 rev/d
Perigee alt
359.0 km
Apogee alt
360.4 km
Semi-major
6,737.8 km
B*
1.0674e-3
RAAN
153.6236°
Arg perigee
91.3114°
Mean anomaly
268.8018°
Rev number
10,574

§ Raw data

STARLINK-11363 [DTC]1 62012U 24213E   26264.96748760  .00130823  00000+0  10674-2 0  99962 62012  53.1571 153.6236 0000993  91.3114 268.8018 15.69716605105747

JSON: /api/v1/satellites/62012 · /tle

For live sub-satellite position, see the globe view (requires WebGL).

§ Visibility from observer

Set your observer location to see the next 7 days of passes ≥ 10°. The values pass through the URL so the page stays shareable.

No JS? Fill the form by hand. The geolocation button needs JavaScript.